Location: Gleizolles
(44.4833°N, 6.7667°E)
Time: 08:42:38
(UTC+00:00)

Tiros 1 despin weight - Visible Passes

Search period start: 14 July 2025 00:00
Search period end: 24 July 2025 00:00
Orbit: 562 x 601 km, 48.2° (Epoch: 14 July)

Date Brightness Start Highest point End Pass type
(mag) Time Alt. Az. Time Alt. Az. Time Alt. Az.
14 Jul ? 03:25:23 10° S 03:28:30 19° SE 03:31:37 10° E visible
17 Jul ? 02:00:21 13° SSE 02:01:45 14° SE 02:04:09 10° ESE visible
18 Jul ? 02:04:39 19° SSE 02:06:05 22° SE 02:09:31 10° E visible
19 Jul ? 02:08:54 25° S 02:10:28 33° SE 02:14:27 10° E visible
20 Jul ? 02:13:05 29° SSW 02:14:55 48° SSE 02:19:12 10° ENE visible
21 Jul ? 00:40:57 14° ESE 00:40:57 14° ESE 00:42:09 10° E visible
21 Jul ? 02:17:14 29° SW 02:19:26 69° SSE 02:23:50 10° ENE visible
22 Jul ? 00:45:04 21° ESE 00:45:04 21° ESE 00:47:16 10° E visible
22 Jul ? 02:21:20 24° WSW 02:23:59 89° NNW 02:28:26 10° ENE visible
23 Jul ? 00:49:08 32° ESE 00:49:08 32° ESE 00:52:06 10° ENE visible
23 Jul ? 02:25:24 18° W 02:28:35 71° NNW 02:33:01 10° ENE visible
